www.pogodaiklimat.ru

Погода и климат >> Архив погоды >> Россия >> Чукотка >> Чаун


ПОГОДА в Чауне

  • Прогноз погоды в Чауне
  • Монитор погоды в Чауне

АРХИВ ПОГОДЫ в Чауне

Время (UTC), дата Ветер
(напр.,м/с)
 
Видим.   Явления Облачность Т
(С)
Тd
(С)
f
(%)
Тe
(С)
Тes
(С)
Комфортность P
(гПа)
Po
(гПа)
Тmin
(С)
Tmax
(С)
R
(мм)
R24
(мм)
S
(см)
12 17.03 СЗ 7-10
{12}
20 км позёмок {снег} 10/3 200 м
[Frnb As op]
-28.8 -31.8 75 -43 -43 опасность
обморожения
1013.5 1012.8
15 17.03 СЗ 8
{10}
20 км позёмок 10/3 200 м
[St Ac und]
-29.7 -32.8 74 -45 -45 опасность
обморожения
1012.5 1011.8
18 17.03 СЗ 7 20 км позёмок 10/3 200 м
[St Ac und]
-29.8 -32.8 75 -44 -44 опасность
обморожения
1011.8 1011.1
21 17.03 СЗ 4
{8}
20 км {метель} 10/0 200 м
[Ac und]
-29.8 -32.8 75 -41 -41 опасность
обморожения
1011.0 1010.3 -30.2 0.2 45
00 18.03 СЗ 8-10
{11}
4000 м слаб. снег {метель} 10/3 200 м
[Frnb As op]
-27.1 -29.5 80 -42 -42 опасность
обморожения
1009.7 1009.0
03 18.03 СЗ 9-11
{12}
4000 м слаб. снег {метель} 10/3 200 м
[Frnb As op]
-26.8 -29.9 75 -42 -42 опасность
обморожения
1007.9 1007.2
06 18.03 СЗ 8-10
{11}
4000 м слаб. снег {метель} 10/3 200 м
[Frnb As op]
-26.5 -29.0 79 -41 -41 опасность
обморожения
1006.2 1005.5
09 18.03 СЗ 8-10
{10}
4000 м слаб. снег {метель} 10/3 200 м
[Frnb As op]
-24.4 -26.9 80 -38 -38 опасность
обморожения
1004.4 1003.7 -24.4 2
12 18.03 СЗ 10-11
{12}
4000 м слаб. снег {метель} 10/3 200 м
[Frnb As op]
-22.8 -24.6 85 -37 -37 опасность
обморожения
1003.0 1002.3
15 18.03 СЗ 12-16
{18}
2000 м слаб. снег {метель} 10/3 200 м
[Frnb As op]
-22.5 -24.4 84 -38 -38 опасность
обморожения
1002.1 1001.5
18 18.03 СЗ 14-17
{18}
2000 м слаб. снег {метель} 10/3 200 м
[Frnb As op]
-22.6 -24.5 84 -39 -39 опасность
обморожения
1002.0 1001.4
21 18.03 СЗ 13-17
{18}
2000 м слаб. снег {метель} 10/3 200 м
[Frnb As op]
-22.4 -24.2 85 -38 -38 опасность
обморожения
1003.6 1003.0 -24.5 1 48
00 19.03 СЗ 14-17
{19}
2000 м слаб. снег {метель} 10/3 200 м
[Frnb As op]
-23.8 -26.3 80 -41 -41 опасность
обморожения
1004.9 1004.3
03 19.03 СЗ 15-19
{20}
200 м слаб. снег {метель} 10/3 200 м
[Frnb As op]
-25.4 -27.8 80 -43 -43 опасность
обморожения
1006.0 1005.3
06 19.03 СЗ 15-18
{20}
200 м слаб. снег {метель} 10/3 200 м
[Frnb As op]
-24.4 -26.9 80 -42 -42 опасность
обморожения
1007.5 1006.8
09 19.03 СЗ 14-17
{19}
2000 м слаб. снег {метель} 10/3 200 м
[Frnb As op]
-23.9 -26.4 80 -41 -41 опасность
обморожения
1008.1 1007.4 -22.4 1
12 19.03 СЗ 14-18
{19}
2000 м слаб. снег {метель} 10/3 200 м
[Frnb As op]
-23.2 -25.0 85 -40 -40 опасность
обморожения
1008.2 1007.5
15 19.03 СЗ 15-19
{21}
500 м слаб. снег {метель} 10/3 200 м
[Frnb As op]
-23.9 -26.4 80 -41 -41 опасность
обморожения
1009.2 1008.5
18 19.03 СЗ 14-15
{19}
2000 м слаб. снег {метель} 10/3 200 м
[Frnb As op]
-24.6 -27.0 80 -42 -42 опасность
обморожения
1010.8 1010.1
21 19.03 СЗ 11-15
{17}
2000 м слаб. снег {метель} 10/3 200 м
[Frnb As op]
-24.3 -26.8 80 -40 -40 опасность
обморожения
1012.9 1012.2 -24.6 2 50
00 20.03 З 8-10
{15}
20 км позёмок {снег} 9/3 200 м
[St Ac trans]
-23.6 -26.0 81 -37 -37 опасность
обморожения
1015.2 1014.5
03 20.03 З 2
{10}
20 км {метель} 10/3 200 м
[St Ac und]
-22.2 -24.7 80 -28 -28 1016.7 1016.1
06 20.03 З 8-10
{10}
2000 м слаб. ливневой снег {метель} 10/10 200 м
[Cb cap]
-20.4 -22.3 85 -33 -33 опасность
обморожения
1018.8 1018.2
09 20.03 З 6
{10}
20 км позёмок {ливн. осадки} 9/9 600 м
[Sc]
-20.7 -22.6 85 -32 -32 опасность
обморожения
1021.5 1020.9 -20.3 1
12 20.03 ЮЗ 2
{7}
20 км {ливн. осадки, метель} 9/9 600 м
[Sc]
-20.9 -22.8 85 -27 -27 1023.8 1023.1
15 20.03 З 1
{3}
20 км 9/3 200 м
[St Ac trans]
-22.6 -24.5 84 -26 -26 1025.8 1025.1
18 20.03 Ю 2
{3}
20 км 9/0
[Ac trans]
-26.2 -28.8 79 -33 -33 опасность
обморожения
1027.5 1026.8
21 20.03 Ю 2
{3}
20 км 6/0
[Ac trans]
-29.1 -32.2 74 -36 -36 опасность
обморожения
1028.9 1028.2 -29.3 46
00 21.03 Ю 2
{4}
50 км 4/0
[Ac lent]
-25.7 -28.8 75 -32 -30 опасность
обморожения
1029.5 1028.8
03 21.03 Ю 2
{3}
50 км 4/0
[Ac lent]
-24.8 -27.3 80 -31 -30 опасность
обморожения
1029.0 1028.3
06 21.03 В 2
{3}
50 км 4/0
[Ac lent]
-27.9 -30.9 75 -35 -35 опасность
обморожения
1028.7 1028.0
09 21.03 ЮВ 3
{4}
50 км 4/0
[Ac lent]
-30.9 -33.8 76 -41 -41 опасность
обморожения
1028.6 1027.9 -23.7
12 21.03 Ю 3
{5}
50 км 3/0
[Ac lent]
-31.8 -34.7 75 -42 -42 опасность
обморожения
1027.5 1026.8
15 21.03 штиль 0
{4}
50 км 3/0
[Ac lent]
-31.3 -34.2 75 -31 -31 опасность
обморожения
1026.9 1026.2
18 21.03 ЮВ 1
{3}
20 км 8/0
[Ac trans]
-29.7 -32.8 74 -34 -34 опасность
обморожения
1026.6 1025.9
21 21.03 Ю 1
{2}
4000 м слаб. снег 10/3 200 м
[Frnb As op]
-26.6 -29.0 80 -30 -30 1027.2 1026.5 -33.3 0.0 46
00 22.03 Ю 2
{3}
20 км {снег} 8/3 600 м
[Sc Ci fib]
-27.3 -30.4 75 -34 -32 опасность
обморожения
1027.6 1026.9
03 22.03 ЮВ 1
{3}
20 км ясно -26.5 -29.7 74 -30 -28 1028.3 1027.6
06 22.03 ЮВ 2
{3}
20 км ясно -30.0 -33.0 75 -37 -37 опасность
обморожения
1028.6 1027.9
09 22.03 В 3
{4}
20 км 3/0
[Ci fib]
-34.0 -37.5 70 -44 -44 опасность
обморожения
1028.5 1027.8 -25.9 0.0
12 22.03 ЮВ 1
{4}
20 км 3/0
[Ci fib]
-36.0 -39.7 69 -41 -41 опасность
обморожения
1027.5 1026.8
15 22.03 ЮВ 2
{4}
20 км 1/0
[Ci fib]
-36.1 -39.7 69 -45 -45 опасность
обморожения
1026.5 1025.8
18 22.03 ЮВ 2
{4}
50 км ясно -35.4 -39.0 69 -44 -44 опасность
обморожения
1025.5 1024.8
21 22.03 ЮВ 2
{4}
50 км ясно -34.8 -38.6 68 -43 -42 опасность
обморожения
1024.4 1023.7 -36.5 46
00 23.03 ЮВ 2
{3}
50 км ясно -31.3 -35.0 70 -39 -36 опасность
обморожения
1022.9 1022.2
03 23.03 ЮВ 2
{4}
50 км ясно -28.8 -31.8 75 -36 -34 опасность
обморожения
1021.3 1020.6
06 23.03 В 2
{3}
50 км ясно -30.3 -33.5 73 -38 -38 опасность
обморожения
1020.3 1019.6
09 23.03 ЮВ 3
{4}
50 км ясно -32.9 -36.2 72 -43 -43 опасность
обморожения
1019.3 1018.6 -28.5
12 23.03 ЮВ 1
{4}
50 км ясно -34.3 -37.8 70 -39 -39 опасность
обморожения
1018.2 1017.5
15 23.03 ЮВ 3
{4}
50 км ясно -35.6 -39.2 69 -46 -46 опасность
обморожения
1017.1 1016.4
18 23.03 ЮВ 2
{4}
50 км 6/0
[Ci fib]
-36.0 -39.7 69 -44 -44 опасность
обморожения
1016.2 1015.5
21 23.03 ЮВ 2
{3}
50 км 4/0
[Ci fib]
-34.6 -38.1 70 -43 -42 опасность
обморожения
1015.0 1014.3 -36.4 46
00 24.03 штиль 0
{2}
50 км 4/0
[Ci fib]
-29.3 -32.4 74 -29 -25 1014.2 1013.5
03 24.03 З 2
{2}
50 км 4/0
[Ci fib]
-26.4 -28.8 80 -33 -31 опасность
обморожения
1012.9 1012.2
06 24.03 СЗ 4
{4}
50 км 4/0
[Ci fib]
-28.2 -31.3 75 -39 -39 опасность
обморожения
1012.4 1011.7
09 24.03 З 4
{5}
50 км 4/0
[Ci fib]
-28.5 -31.5 75 -39 -39 опасность
обморожения
1012.2 1011.5 -26.4

 

Местоположение метеостанции Чаун (Чукотка, Россия): широта 68.88 долгота 170.70 высота над уровнем моря 5 м.

В архиве по умолчанию представлена погода в Чауне за последнюю неделю. Архивные данные за месяц целиком и за предыдущие месяцы, начиная с января 2011 года, Вы можете получить, выбрав интересующий диапазон дат из раскрывающегося списка и нажав кнопку "Ввод!".


*Определитесь, кто Вы:
робот инопланетянин человек

Внимание! Время в таблицах - всемирное. Для получения местного времени необходимо прибавить поправку, которая равна 12 ч.

Смотрите также архив погоды в соседних городах и на ближайших метеорологических станциях:

Погода на 21 км (Чукотка, Россия) (84 км)
Погода в Комсомольской (Чукотка, Россия) (89 км)
Погода в Певеке (Чукотка, Россия) (93 км)
Погода в Майской (Чукотка, Россия) (117 км)
Погода в Валькаркае (Чукотка, Россия) (134 км)
Погода в Паляваам-Глубокой (Чукотка, Россия) (137 км)
Погода на Айон Острове (Чукотка, Россия) (160 км)
Погода в Раучуе (Чукотка, Россия) (180 км)
Погода в Билибино (Чукотка, Россия) (198 км)
Погода в Илирнее (Чукотка, Россия) (215 км)

Пояснения к столбцам:

Ветер - указаны скорость ветра в м/с - средняя за 10 мин, порывы в срок и между сроками (в фигурных скобках) и направление, откуда дует ветер: С - северный, СВ - северо-восточный, В - восточный, ЮВ - юго-восточный, Ю - южный, ЮЗ - юго-западный, З - западный, СЗ - северо-западный.
Видимость - горизонтальная дальность видимости в метрах или километрах. При видимости от 1 до 10 км при отсутствии осадков обычно наблюдается дымка, при ухудшении видимости до 1 км и менее - туман. В сухую погоду видимость может ухудшаться дымом, пылью или мглою.
Явления - указаны атмосферные явления, наблюдавшиеся в срок или в последний час перед сроком; фигурными скобками обозначены явления, наблюдавшиеся между сроками (за 1-3 часа до срока); квадратными скобками обозначены град или гололедные отложения с указанием их диаметра в мм.
Облачность - указаны через наклонную черту общая и нижняя облачность в баллах и высота нижней границы облаков в метрах; квадратными скобками обозначены формы облаков: Ci - перистые, Cs - перисто-слоистые, Cc - перисто-кучевые, Ac - высококучевые, As - высокослоистые, Sc - слоисто-кучевые, Ns - слоисто-дождевые, Cu - кучевые, Cb - кучево-дождевые. Подробнее классификацию облаков см. в Атласе облаков (PDF).
T - Температура воздуха - температура, измеренная на высоте 2 м над землей.
Td - Температура точки росы - температура, при понижении до которой содержащийся в воздухе водяной пар достигнет насыщения.
f - Относительная влажность воздуха - влажноcть воздуха, измеренная на высоте 2 м над землей.
Te - Эффективная температура - температура, которую ощущает одетый по сезону человек в тени. Характеристика душности погоды. При расчете учитывается влияние влажности воздуха и скорости ветра на теплоощущения человека.
Tes - Эффективная температура на солнце - температура, которую ощущает человек, с поправкой на солнечный нагрев. Характеристика знойности погоды. Зависит от высоты солнца над горизонтом, облачности и скорости ветра. Ночью, в пасмурную погоду, а также при ветре 12 м/с и более поправка равна нулю.
P - Атмосферное давление - приведенное к уровню моря атмосферное давление.
Po - Атмосферное давление - измеренное на уровне метеостанции атмосферное давление.
Tmin - Минимальная температура - минимум температуры воздуха на высоте 2 м над землей.
Tmax - Максимальная температура - максимум температуры воздуха на высоте 2 м над землей.
R - Количество осадков - Количество выпавших осадков за период времени, мм. При наведении курсора мыши на число - период времени, за который выпало указанное количество осадков.
R24 - Количество осадков - Количество выпавших осадков за 24 часа, мм.
S - Снежный покров - Высота снежного покрова, см. При наведении курсора мыши на число - состояние снежного покрова и степень покрытия местности в баллах.